Location: Unspecified
(44.0704°N, 88.6889°W)
Time: 17:06:36
(UTC+02:00)

Cosmos 2058 - Visible Passes

Search period start: 23 May 2018 00:00
Search period end: 02 June 2018 00:00
Orbit: 564 x 584 km, 82.5° (Epoch: 23 May)

Date Brightness Start Highest point End Pass type
(mag) Time Alt. Az. Time Alt. Az. Time Alt. Az.
23 May 2.9 11:00:41 12° S 11:04:32 87° WNW 11:08:46 10° N visible
24 May 5.8 09:30:18 10° E 09:31:24 11° E 09:32:30 10° ENE visible
24 May 3.0 11:04:08 14° SSW 11:07:42 65° W 11:11:55 10° N visible
25 May 5.5 09:32:10 10° ESE 09:34:26 14° E 09:36:43 10° NE visible
25 May 3.3 11:07:34 15° SSW 11:10:54 49° WNW 11:15:01 10° N visible
26 May 5.2 09:34:44 11° SE 09:37:29 19° E 09:40:26 10° NE visible
26 May 3.7 11:10:57 14° SW 11:14:07 37° WNW 11:18:04 10° N visible
27 May 4.9 09:38:07 15° SE 09:40:33 24° E 09:43:58 10° NE visible
27 May 4.1 11:14:20 14° SW 11:17:21 29° WNW 11:21:03 10° NNW visible
28 May 4.4 09:41:29 19° SE 09:43:39 31° E 09:47:23 10° NNE visible
28 May 4.4 11:17:42 12° WSW 11:20:36 22° WNW 11:23:58 10° NNW visible
29 May 3.9 09:44:49 25° SE 09:46:45 41° E 09:50:43 10° NNE visible
29 May 4.7 11:21:02 10° WSW 11:23:53 18° WNW 11:26:45 10° NNW visible
30 May 3.4 09:48:08 31° SSE 09:49:52 55° E 09:54:00 10° NNE visible
30 May 5.0 11:24:59 10° W 11:27:11 14° WNW 11:29:22 10° NW visible
31 May 3.0 09:51:26 37° S 09:53:01 73° E 09:57:14 10° NNE visible
31 May 5.2 11:29:34 10° WNW 11:30:29 11° WNW 11:31:24 10° NW visible
01 Jun 2.8 09:54:43 40° SSW 09:56:11 84° W 10:00:24 10° N visible
